[[{"header":{"parameterUnit":"m.s-1","parameterCategory":1,"la1":30.2991,"la2":30.254,"lo1":-89.0895,"lo2":-89.0444,"dy":0.0017,"dx":0.0017,"nx":28,"ny":28,"refTime":"2025-09-07T09:00:00:Z","depth":0,"parameterNumber":2,"parameterNumberName":"U-component_of_WINDS"},"data":[0,0,0,0,0,0,0,0,0,0,0,0,0,0,0,0,0,0,0,0,0,0,0,0,0,0,0,0,0,0,0,0,0,0,0,0,0,0,0,0,0,0,0,0,0,0,0,0,0,0,0,0,0,0,0,0,0,0,-1.36,-1.3599,0,-1.3564,-1.3563,-1.3563,-1.3483,-1.3481,-1.3479,-1.3478,-1.3442,-1.3443,-1.3444,0,0,0,0,0,0,0,0,0,0,0,0,0,-1.36,-1.36,-1.36,-1.3599,-1.3599,-1.3564,-1.3563,-1.3563,-1.3483,-1.3481,-1.3479,-1.3477,-1.3442,-1.3443,-1.3444,0,0,0,0,0,0,0,0,0,0,0,0,0,-1.3585,-1.36,-1.36,-1.3555,-1.355,-1.3564,-1.3563,-1.3563,-1.3483,-1.3481,-1.3478,-1.3476,-1.3442,-1.3443,-1.3444,-1.3499,0,0,-1.3446,-1.3447,0,0,0,0,0,0,0,0,-1.3586,-1.3586,-1.3562,-1.3558,-1.3553,-1.3525,-1.355,-1.3541,-1.3484,-1.3509,-1.3478,-1.3475,-1.3472,-1.347,-1.3469,-1.3497,-1.3495,-1.3446,-1.3447,-1.3447,-1.3448,0,0,0,0,0,0,0,-1.3587,-1.3587,-1.3586,-1.3562,-1.3556,-1.3536,-1.3532,-1.3548,-1.3505,-1.3506,-1.3501,-1.3497,-1.3469,-1.3468,-1.3468,-1.3495,-1.3446,-1.3447,-1.3448,-1.3448,-1.3565,-1.3567,0,0,0,0,0,0,-1.3595,-1.3588,-1.3587,-1.3584,-1.3564,-1.3538,-1.3533,-1.3537,-1.3504,-1.3497,-1.3499,-1.3494,-1.3468,-1.3467,-1.3466,-1.3528,-1.3447,-1.3448,-1.3449,-1.3562,-1.3565,-1.3568,0,0,0,0,0,0,-1.3595,-1.3596,-1.3588,-1.3585,-1.3582,-1.3541,-1.3546,-1.3537,-1.3536,-1.3499,-1.3491,-1.3507,-1.3466,-1.3465,-1.3491,-1.3526,-1.3449,-1.3449,-1.3559,-1.3563,-1.3567,-1.3653,0,0,0,0,0,0,-1.3596,-1.3596,-1.3617,-1.3586,-1.3583,-1.3614,-1.3548,-1.3538,-1.3538,-1.353,-1.3504,-1.3497,-1.3464,-1.349,-1.3492,-1.3525,-1.345,-1.3556,-1.3561,-1.3565,-1.3647,-1.3659,-1.367,0,0,0,0,0,-1.3596,-1.3643,-1.3618,-1.3619,-1.3608,-1.3616,-1.3614,-1.3575,-1.3541,-1.3561,-1.3537,-1.3498,-1.3521,-1.3493,-1.3494,-1.3529,-1.3553,-1.3559,-1.3565,-1.3642,-1.3657,-1.3669,0,0,0,0,0,0,-1.3681,-1.3639,-1.361,-1.3649,-1.3637,-1.3603,-1.3628,-1.3593,-1.359,-1.3583,-1.3534,-1.3529,-1.3562,-1.3547,-1.3517,-1.358,-1.3531,-1.3537,-1.3588,-1.3603,-1.3614,-1.3618,-1.3451,0,0,0,0,0,-1.3704,-1.3714,-1.3676,-1.3714,-1.3709,-1.367,-1.3672,-1.3642,-1.3628,-1.3622,-1.36,-1.3588,-1.3592,-1.3596,-1.3598,-1.3643,-1.3636,-1.3667,-1.3679,-1.3688,-1.3695,-1.3717,-1.3731,-1.3587,-1.3587,-1.3587,0,0,-1.3753,-1.373,-1.374,-1.3731,-1.3718,-1.373,-1.3666,-1.3681,-1.369,-1.3625,-1.3648,-1.3631,-1.3614,-1.3649,-1.3664,-1.3639,-1.3733,-1.3696,-1.3704,-1.3705,-1.3725,-1.3738,-1.3751,-1.3591,-1.359,-1.3589,0,0,-1.3847,-1.3831,-1.3861,-1.3848,-1.3829,-1.3801,-1.3808,-1.3779,-1.3765,-1.3787,-1.3738,-1.3746,-1.3755,-1.3745,-1.3741,-1.3828,-1.3792,-1.383,-1.3891,-1.3913,-1.3924,-1.3934,-1.3966,-1.3978,-1.3836,-1.3836,-1.3836,0,-1.3911,-1.3926,-1.3881,-1.3899,-1.3896,-1.3836,-1.3865,-1.3855,-1.3838,-1.3837,-1.3808,-1.3817,-1.3801,-1.3833,-1.3854,-1.3852,-1.3859,-1.3834,-1.3926,-1.3936,-1.3944,-1.3974,-1.3986,-1.3841,-1.384,-1.384,-1.3839,0,-1.4005,-1.4016,-1.4042,-1.4025,-1.4025,-1.4049,-1.4007,-1.4012,-1.3981,-1.3957,-1.3979,-1.3958,-1.3954,-1.3959,-1.393,-1.3986,-1.3971,-1.3935,-1.3885,-1.3964,-1.3991,-1.4002,-1.3848,-1.3846,-1.3845,-1.3844,0,0,-1.4155,-1.4111,-1.4122,-1.4113,-1.4085,-1.4093,-1.4113,-1.4108,-1.4114,-1.4102,-1.4119,-1.4126,-1.4091,-1.4087,-1.4055,-1.4074,-1.4145,-1.4036,-1.4034,-1.4058,-1.4206,-1.4235,-1.4249,-1.412,-1.4122,-1.4123,-1.4208,0,-1.4245,-1.4277,-1.4235,-1.4277,-1.4287,-1.4228,-1.4245,-1.423,-1.4207,-1.4212,-1.4186,-1.4192,-1.4146,-1.4143,-1.4159,-1.4133,-1.4175,-1.4126,-1.4135,-1.4136,-1.4143,-1.4263,-1.4294,-1.4375,-1.4218,-1.422,-1.4221,0,-1.4355,-1.4347,-1.439,-1.4358,-1.436,-1.4377,-1.4368,-1.4373,-1.4354,-1.4336,-1.4329,-1.4291,-1.4308,-1.4257,-1.428,-1.4248,-1.4249,-1.4236,-1.4238,-1.4239,-1.4185,-1.4269,-1.44,-1.4413,-1.4237,-1.4236,-1.4235,0,-1.4462,-1.4462,-1.4487,-1.4481,-1.4445,-1.4458,-1.4443,-1.4421,-1.442,-1.4412,-1.4411,-1.4405,-1.4403,-1.4399,-1.436,-1.4327,-1.4388,-1.4334,-1.4374,-1.4375,-1.4391,-1.4391,-1.4527,-1.4389,-1.4389,-1.4389,-1.4388,0,-1.4567,-1.4596,-1.4535,-1.4551,-1.458,-1.4531,-1.4562,-1.4541,-1.4522,-1.4532,-1.448,-1.4491,-1.4438,-1.4443,-1.4412,-1.4436,-1.4435,-1.4421,-1.4412,-1.4426,-1.4428,-1.4428,-1.4422,-1.4392,-1.4391,-1.439,-1.439,0,-1.4693,-1.4653,-1.4677,-1.4639,-1.463,-1.4654,-1.4621,-1.4634,-1.4606,-1.462,-1.462,-1.4577,-1.458,-1.4539,-1.4535,-1.4514,-1.4552,-1.4533,-1.4559,-1.4554,-1.4596,-1.4593,-1.4737,-1.4753,-1.4604,-1.4605,-1.4606,0,-1.4764,-1.4785,-1.4748,-1.4751,-1.4738,-1.4744,-1.4742,-1.4693,-1.4694,-1.4672,-1.4688,-1.4686,-1.4682,-1.4689,-1.4658,-1.4653,-1.4635,-1.4685,-1.4634,-1.4647,-1.4637,-1.4637,-1.4639,-1.4697,-1.4699,-1.47,-1.4702,0,-1.4895,-1.4874,-1.4873,-1.4865,-1.4864,-1.4855,-1.4844,-1.4849,-1.4795,-1.4798,-1.48,-1.4797,-1.4791,-1.479,-1.4779,-1.4764,-1.4724,-1.4717,-1.4726,-1.4742,-1.4757,-1.475,-1.459,-1.4715,-1.4714,-1.4713,-1.4712,-1.4711,-1.4996,-1.5011,-1.4988,-1.4988,-1.4973,-1.4963,-1.4973,-1.4945,-1.4946,-1.4937,-1.4907,-1.4914,-1.4892,-1.4873,-1.4861,-1.4865,-1.4841,-1.4854,-1.4857,-1.4862,-1.487,-1.4754,-1.4863,-1.4862,-1.4862,-1.4862,-1.4861,0,-1.5126,-1.5106,-1.5107,-1.5091,-1.5092,-1.5052,-1.5036,-1.5039,-1.5045,-1.5028,-1.5024,-1.5026,-1.5024,-1.4991,-1.4985,-1.4995,-1.4976,-1.4995,-1.4995,-1.4992,-1.4892,-1.4885,-1.501,-1.501,-1.501,-1.501,-1.501,-1.501,-1.5193,-1.5216,-1.5191,-1.5206,-1.5186,-1.5192,-1.5187,-1.5176,-1.5162,-1.5166,-1.5163,-1.5141,-1.5117,-1.5108,-1.5104,-1.5094,-1.5095,-1.5121,-1.5105,-1.5013,-1.4999,-1.4985,-1.4979,-1.5121,-1.5121,-1.5204,-1.5205,-1.5206]},{"header":{"parameterUnit":"m.s-1","parameterCategory":1,"la1":30.2991,"la2":30.254,"lo1":-89.0895,"lo2":-89.0444,"dy":0.0017,"dx":0.0017,"nx":28,"ny":28,"refTime":"2025-09-07T09:00:00:Z","depth":0,"parameterNumber":3,"parameterNumberName":"V-component_of_WINDS"},"data":[0,0,0,0,0,0,0,0,0,0,0,0,0,0,0,0,0,0,0,0,0,0,0,0,0,0,0,0,0,0,0,0,0,0,0,0,0,0,0,0,0,0,0,0,0,0,0,0,0,0,0,0,0,0,0,0,0,0,-5.8407,-5.8408,0,-5.8482,-5.8483,-5.8484,-5.8405,-5.8402,-5.8399,-5.8396,-5.8467,-5.8472,-5.8476,0,0,0,0,0,0,0,0,0,0,0,0,0,-5.8188,-5.8192,-5.8407,-5.8408,-5.8409,-5.8482,-5.8483,-5.8484,-5.8405,-5.8402,-5.8398,-5.8394,-5.8465,-5.8471,-5.8477,0,0,0,0,0,0,0,0,0,0,0,0,0,-5.8275,-5.8194,-5.8407,-5.8378,-5.8377,-5.8482,-5.8483,-5.8484,-5.8406,-5.8402,-5.8397,-5.8393,-5.8464,-5.847,-5.8477,-5.8612,0,0,-5.8499,-5.8502,0,0,0,0,0,0,0,0,-5.827,-5.8283,-5.8382,-5.8381,-5.8379,-5.843,-5.8432,-5.8527,-5.8407,-5.8395,-5.8396,-5.839,-5.8458,-5.8465,-5.8489,-5.8616,-5.8619,-5.85,-5.8504,-5.8507,-5.8509,0,0,0,0,0,0,0,-5.8264,-5.8279,-5.8436,-5.8383,-5.8381,-5.836,-5.8367,-5.845,-5.8451,-5.8395,-5.839,-5.84,-5.8456,-5.8482,-5.849,-5.862,-5.8499,-5.8506,-5.851,-5.8513,-5.8859,-5.8864,0,0,0,0,0,0,-5.8262,-5.8275,-5.8434,-5.8439,-5.8312,-5.8367,-5.8376,-5.8418,-5.845,-5.845,-5.8404,-5.8396,-5.8472,-5.8482,-5.8492,-5.8652,-5.8507,-5.8514,-5.8518,-5.8854,-5.886,-5.8866,0,0,0,0,0,0,-5.8258,-5.8277,-5.8431,-5.8355,-5.8373,-5.8376,-5.8424,-5.8422,-5.8448,-5.8456,-5.8455,-5.8431,-5.8469,-5.8482,-5.8583,-5.8653,-5.8517,-5.8523,-5.8849,-5.8856,-5.8863,-5.8972,0,0,0,0,0,0,-5.8252,-5.8276,-5.8329,-5.8357,-5.8378,-5.8523,-5.8428,-5.8426,-5.8461,-5.8452,-5.8481,-5.8482,-5.8467,-5.8573,-5.859,-5.866,-5.8529,-5.8842,-5.8852,-5.8861,-5.8962,-5.8982,-5.8999,0,0,0,0,0,-5.8244,-5.8356,-5.8332,-5.8352,-5.8444,-5.8527,-5.8538,-5.8521,-5.8467,-5.8519,-5.8524,-5.8481,-5.8643,-5.8584,-5.8603,-5.8676,-5.8838,-5.8849,-5.886,-5.8954,-5.8978,-5.8999,0,0,0,0,0,0,-5.8333,-5.8359,-5.8333,-5.8457,-5.8491,-5.8514,-5.8579,-5.8547,-5.8595,-5.8584,-5.8558,-5.8565,-5.8672,-5.8684,-5.8618,-5.8807,-5.8731,-5.8747,-5.8796,-5.8819,-5.8838,-5.8832,-5.8535,0,0,0,0,0,-5.8368,-5.8435,-5.8453,-5.856,-5.8579,-5.8576,-5.8612,-5.8595,-5.8628,-5.8641,-5.8654,-5.8686,-5.8743,-5.8782,-5.8836,-5.8963,-5.8968,-5.9023,-5.9041,-5.9057,-5.907,-5.9137,-5.9161,-5.8902,-5.8902,-5.8902,0,0,-5.8438,-5.8461,-5.8505,-5.8579,-5.8603,-5.8671,-5.8589,-5.8664,-5.8714,-5.8652,-5.8748,-5.8759,-5.8792,-5.8907,-5.8958,-5.892,-5.9143,-5.9071,-5.9083,-5.9088,-5.9151,-5.9176,-5.9197,-5.891,-5.8908,-5.8907,0,0,-5.8603,-5.8627,-5.8719,-5.8746,-5.8784,-5.8782,-5.8804,-5.8832,-5.8837,-5.8934,-5.8888,-5.8946,-5.9046,-5.9072,-5.9098,-5.9273,-5.9234,-5.929,-5.9387,-5.9453,-5.9474,-5.9492,-5.9553,-5.9575,-5.9304,-5.9304,-5.9304,0,-5.8685,-5.8789,-5.877,-5.885,-5.8883,-5.8832,-5.8923,-5.8949,-5.9002,-5.9025,-5.8982,-5.9107,-5.9126,-5.9246,-5.9289,-5.9312,-5.9335,-5.9287,-5.9473,-5.949,-5.9507,-5.9565,-5.9588,-5.9311,-5.931,-5.9309,-5.9309,0,-5.8888,-5.896,-5.9029,-5.9085,-5.9125,-5.9211,-5.9203,-5.9246,-5.9226,-5.9227,-5.9325,-5.9347,-5.9404,-5.9431,-5.9411,-5.9548,-5.9523,-5.9477,-5.94,-5.9539,-5.9592,-5.9614,-5.932,-5.9318,-5.9316,-5.9314,0,0,-5.911,-5.9154,-5.918,-5.9204,-5.9242,-5.9297,-5.9379,-5.9436,-5.9473,-5.9511,-5.9578,-5.9665,-5.9623,-5.9652,-5.9635,-5.9693,-5.9828,-5.964,-5.964,-5.9673,-5.9979,-6.0012,-6.0039,-5.9803,-5.9808,-5.9811,-5.9975,0,-5.9274,-5.9419,-5.9405,-5.9541,-5.9607,-5.9559,-5.963,-5.9661,-5.9664,-5.9718,-5.9721,-5.9783,-5.9723,-5.974,-5.9796,-5.98,-5.9889,-5.9788,-5.9863,-5.9866,-5.9856,-6.0067,-6.0103,-6.0257,-5.9997,-6.0,-6.0003,0,-5.9486,-5.9534,-5.9678,-5.9706,-5.9733,-5.9798,-5.9849,-5.9902,-5.9935,-5.9933,-5.9967,-5.9939,-6.0019,-5.9941,-6.005,-5.9982,-6.0012,-6.0019,-6.0024,-6.003,-5.9942,-6.0077,-6.0306,-6.0329,-6.0036,-6.0033,-6.0031,0,-5.9632,-5.9732,-5.9831,-5.9854,-5.9889,-5.9936,-5.9952,-5.9981,-6.0016,-6.006,-6.0082,-6.0135,-6.0163,-6.0203,-6.0189,-6.0134,-6.0301,-6.0222,-6.03,-6.0301,-6.0337,-6.0334,-6.0573,-6.0358,-6.0357,-6.0357,-6.0356,0,-5.9817,-5.9906,-5.9898,-5.9959,-6.0057,-6.0038,-6.0136,-6.0146,-6.0172,-6.0232,-6.0193,-6.025,-6.0229,-6.0284,-6.0274,-6.0365,-6.0378,-6.0378,-6.0374,-6.0381,-6.0381,-6.0399,-6.0388,-6.0363,-6.0362,-6.036,-6.0359,0,-5.9996,-5.9995,-6.0099,-6.0125,-6.0134,-6.0205,-6.0226,-6.0282,-6.0283,-6.036,-6.0376,-6.0377,-6.044,-6.0431,-6.05,-6.0493,-6.0606,-6.0589,-6.0596,-6.0592,-6.067,-6.0663,-6.0928,-6.0961,-6.0726,-6.0728,-6.073,0,-6.0114,-6.0182,-6.0216,-6.0255,-6.0276,-6.0339,-6.0375,-6.0359,-6.0398,-6.044,-6.0491,-6.0551,-6.0598,-6.07,-6.0705,-6.0758,-6.0741,-6.0831,-6.0748,-6.0753,-6.0741,-6.0737,-6.0743,-6.0846,-6.0849,-6.0851,-6.0853,0,-6.0323,-6.0319,-6.0374,-6.043,-6.0475,-6.0517,-6.0555,-6.0588,-6.0575,-6.062,-6.0686,-6.0722,-6.0794,-6.0853,-6.0903,-6.0917,-6.0883,-6.0879,-6.09,-6.0907,-6.0908,-6.0908,-6.0639,-6.0873,-6.0871,-6.0869,-6.0868,-6.0867,-6.0475,-6.0533,-6.0566,-6.0629,-6.0656,-6.0692,-6.0747,-6.0755,-6.0809,-6.0868,-6.0854,-6.0928,-6.0957,-6.102,-6.104,-6.1095,-6.1062,-6.1092,-6.11,-6.1107,-6.1116,-6.09,-6.1104,-6.1104,-6.1103,-6.1103,-6.1102,0,-6.068,-6.07,-6.0758,-6.0813,-6.0862,-6.0828,-6.0868,-6.091,-6.0976,-6.1008,-6.1055,-6.1129,-6.1187,-6.1197,-6.1251,-6.1293,-6.1279,-6.1308,-6.1304,-6.1308,-6.1143,-6.112,-6.1319,-6.1319,-6.1319,-6.1319,-6.1318,-6.1318,-6.0793,-6.089,-6.089,-6.0999,-6.1017,-6.109,-6.1116,-6.1148,-6.1173,-6.1259,-6.1307,-6.1314,-6.1336,-6.1392,-6.1442,-6.1443,-6.1464,-6.15,-6.1495,-6.1341,-6.1319,-6.1299,-6.1276,-6.1505,-6.1505,-6.1654,-6.1655,-6.1656]}]]